Wind_Speed
58 58 58 59 58 56 58 58 58 64 74 80 85 88 89 91 92 88 83 83 83 80 78 78 75 72 72 71 69 70 72 71 69 67 65 62 60 62 62 58 57 57 54 53 54 55 55 55 54 54 55 55 54 54 54 53 54 54 53 54 55 55 55 55 55 55 55 56 56 56 57 57 57 57 57 57 56 57 58 59 59 59 59 60 62 63 64
63 63 59 59 60 59 59 59 57 59 66 74 81 84 86 90 93 91 86 86 86 83 82 83 80 77 76 75 72 72 74 75 74 70 66 63 61 63 64 61 59 59 57 57 57 57 57 57 56 55 56 57 57 56 56 55 55 55 56 57 57 58 58 57 57 57 57 58 58 58 59 59 60 60 59 59 59 59 60 61 61 61 60 61 62 63 65
66 64 62 62 63 62 60 58 57 58 61 66 73 78 82 85 90 93 91 89 88 86 86 86 84 82 80 78 76 75 75 77 77 73 69 65 63 64 63 61 59 58 58 58 59 59 59 59 58 56 57 59 59 58 58 57 56 57 59 60 60 61 60 60 59 59 59 59 60 60 61 61 62 62 62 61 61 61 61 62 62 62 62 61 61 62 64
67 65 65 65 65 64 61 56 54 56 58 58 61 70 78 83 86 91 93 91 89 89 90 90 88 85 84 82 80 77 76 78 79 76 73 71 69 69 69 67 65 63 62 61 61 61 61 60 59 59 59 60 60 60 60 59 59 59 62 63 63 62 61 61 61 61 61 61 61 62 63 63 64 64 64 64 64 64 64 64 64 64 63 62 62 62 63
68 68 67 65 69 69 60 50 48 53 58 59 59 63 71 78 83 88 93 93 92 92 94 94 91 88 88 86 83 81 79 80 81 79 76 74 74 74 74 73 71 69 68 65 63 62 61 60 60 60 60 61 62 62 62 61 61 62 64 65 64 62 61 62 63 63 62 62 63 64 64 65 65 65 66 66 66 66 66 66 66 65 65 64 64 63 63
71 70 68 69 73 66 51 46 49 54 58 62 62 63 66 72 78 84 89 92 94 96 97 95 93 91 91 89 87 85 83 81 81 82 79 77 78 77 76 75 74 73 71 69 67 66 64 63 64 62 61 62 63 63 64 64 64 65 67 68 66 64 63 64 64 64 64 65 65 66 66 67 67 67 68 69 69 68 68 68 68 67 67 67 66 65 64
75 72 73 74 68 56 49 53 57 57 59 62 63 62 62 65 71 79 85 89 92 95 97 96 95 95 94 93 89 87 87 85 84 84 81 79 80 78 76 76 76 75 74 72 70 68 67 67 68 66 65 66 66 66 66 67 66 67 69 70 68 67 66 65 65 65 66 67 67 67 68 68 69 69 70 71 71 70 70 70 70 70 69 69 68 67 66
77 74 74 72 62 55 57 62 61 59 59 60 61 60 59 60 66 72 79 83 86 89 92 95 97 98 98 96 92 88 90 89 86 84 81 80 82 80 78 79 80 77 76 76 73 71 69 69 69 68 68 69 69 68 69 70 70 70 72 72 70 67 66 66 66 67 67 68 69 69 69 70 71 72 72 73 73 73 72 72 72 72 71 70 69 68 67
80 76 74 71 65 62 62 63 62 59 55 56 59 57 54 57 62 66 71 76 80 84 88 92 97 100 100 98 94 90 88 89 89 85 82 82 84 84 83 84 84 81 78 78 78 74 71 71 71 70 70 70 70 70 71 72 73 73 73 73 71 68 67 67 67 67 68 69 70 71 71 72 73 74 75 75 75 75 74 74 73 73 73 72 70 69 69
82 78 76 73 68 64 63 63 60 53 49 53 56 54 52 55 60 64 67 71 74 79 84 89 94 99 100 98 95 91 88 88 89 89 88 87 86 87 88 86 86 84 80 79 80 78 75 74 73 72 72 72 71 72 73 75 75 75 74 73 71 71 71 70 68 68 69 70 71 73 74 74 75 77 77 78 77 77 76 75 74 74 73 72 72 71 70
81 78 76 72 66 63 62 61 57 51 49 51 50 51 53 56 59 61 62 63 67 72 77 82 87 93 96 95 94 92 92 91 91 92 93 91 89 89 89 89 89 86 80 79 82 81 78 76 75 75 76 74 73 74 75 77 77 76 75 74 74 74 74 72 70 70 71 72 73 74 76 77 78 80 80 80 80 79 77 76 75 73 72 71 72 72 71
80 77 74 69 64 62 59 58 57 56 53 51 49 52 54 54 55 55 55 58 64 68 71 76 82 87 90 91 93 96 97 95 94 94 94 93 91 90 90 93 94 87 79 80 84 83 80 78 77 78 78 76 75 75 77 79 79 78 77 77 76 76 75 73 72 73 73 73 74 75 77 79 80 82 82 83 82 80 79 77 74 72 71 71 71 72 72
79 76 73 69 65 62 60 59 60 57 53 52 54 53 50 50 53 53 52 54 59 64 68 73 78 83 85 88 91 95 97 97 97 95 92 92 93 92 93 96 95 87 82 85 87 84 82 81 80 80 80 79 77 77 78 81 81 80 80 79 78 77 76 74 75 75 75 75 75 76 78 80 81 83 84 84 83 81 79 76 73 71 71 71 72 72 72
78 75 73 69 66 63 62 60 59 55 52 52 52 48 45 48 53 54 53 53 55 59 64 69 73 77 81 84 88 91 94 97 97 93 91 93 94 93 94 95 92 86 87 91 90 86 84 82 81 82 83 81 78 77 80 82 82 81 81 81 79 77 76 76 77 77 77 77 77 77 79 80 80 82 82 81 80 80 78 75 73 73 73 73 73 72 72
76 75 73 70 66 65 64 61 58 54 50 48 47 48 48 51 53 53 53 53 52 52 55 61 67 70 74 79 83 86 88 91 91 90 91 93 93 93 94 92 88 88 92 94 92 88 85 83 81 80 80 79 78 77 77 78 79 81 82 81 79 78 77 78 78 78 78 77 77 78 78 78 79 80 78 74 74 76 77 76 76 74 73 73 73 73 73
74 73 71 67 65 64 63 60 56 53 48 46 47 50 50 48 50 53 54 53 51 49 48 52 59 64 67 72 76 79 81 83 83 85 88 89 89 92 93 90 86 87 92 94 92 89 87 85 83 81 80 80 79 79 79 79 81 83 83 82 80 80 80 80 79 79 78 78 77 77 77 77 77 76 72 70 72 75 76 77 77 76 74 74 74 74 74
75 73 70 66 65 63 60 57 56 54 51 48 49 51 49 47 48 51 52 52 53 52 50 50 54 57 60 64 67 70 74 76 78 81 84 86 87 90 92 92 91 91 93 94 93 91 89 86 85 85 85 84 83 83 83 83 83 83 82 82 82 82 82 81 80 79 78 78 77 77 76 76 75 72 70 70 73 77 78 78 77 76 75 75 75 75 75
71 70 68 65 63 60 57 55 56 56 52 49 49 51 51 51 50 49 49 51 51 51 50 50 51 52 52 56 59 62 67 71 71 71 74 80 86 88 88 89 93 94 95 96 96 94 92 90 89 87 87 88 88 88 86 84 82 82 82 83 84 84 84 83 81 80 79 79 78 77 77 77 76 74 72 73 76 78 79 78 77 76 76 76 76 76 75
65 62 61 61 60 56 53 51 52 50 47 46 50 52 52 50 48 49 52 52 49 48 45 43 46 50 49 48 51 55 60 64 62 60 62 67 73 77 79 83 87 91 93 95 97 96 96 94 93 91 88 87 86 86 84 83 82 81 82 83 84 84 84 83 81 80 79 79 79 79 78 78 77 76 74 75 77 78 78 77 76 76 77 77 76 76 76
61 56 52 54 56 53 50 50 52 51 47 47 51 53 50 46 46 50 54 53 49 48 44 37 39 47 48 45 44 48 53 56 55 55 57 54 54 59 66 70 75 82 88 92 95 96 97 96 96 95 93 89 85 82 82 82 81 81 82 83 83 83 82 81 80 80 80 79 79 79 79 78 76 75 75 75 76 77 77 77 76 77 78 78 77 77 77
58 54 50 53 58 55 51 50 52 51 49 50 52 51 48 46 46 50 54 54 50 48 44 37 36 42 45 43 40 42 44 45 44 46 48 48 49 53 56 58 62 69 76 82 88 93 95 96 97 96 95 93 90 87 85 83 82 81 82 83 83 82 81 80 80 79 79 78 78 77 77 76 75 74 75 75 75 76 77 77 77 78 79 78 77 78 79
58 57 53 53 56 54 51 51 51 49 47 48 49 49 47 47 48 49 52 53 51 49 48 43 40 40 42 40 37 35 35 35 34 34 34 36 39 44 46 50 60 70 74 77 83 88 91 93 93 93 93 92 91 89 86 84 82 82 82 82 82 81 80 80 79 77 76 77 77 76 76 75 74 73 73 74 74 76 77 78 78 78 77 77 78 79 80
59 60 58 57 56 54 51 51 51 49 46 44 43 43 43 44 46 48 50 49 47 46 47 44 39 39 40 37 34 31 28 28 28 26 24 25 29 31 35 45 60 73 77 77 78 79 81 83 85 87 89 89 88 88 87 85 84 83 81 81 80 79 79 78 77 76 75 76 76 75 75 75 74 73 73 73 75 76 76 75 75 74 74 76 78 79 80
59 60 60 60 59 56 53 51 50 50 48 45 42 40 40 40 42 46 49 48 45 44 45 42 38 37 40 39 36 32 28 27 29 30 30 32 34 37 42 51 61 68 69 66 62 62 64 68 72 75 79 81 83 84 85 84 83 82 81 80 79 78 78 77 76 75 74 74 74 74 74 74 73 73 72 72 72 72 71 71 71 72 74 76 77 78 81
60 60 62 62 61 60 56 51 48 48 49 47 43 41 40 40 41 44 47 49 47 46 45 42 40 40 43 44 42 40 39 39 40 42 44 44 45 48 54 59 63 64 62 59 58 59 61 64 67 69 72 74 76 78 80 80 80 79 78 77 77 76 75 73 71 70 70 72 73 74 73 73 72 71 70 68 68 67 67 68 70 72 74 76 77 79 81
58 58 59 60 60 60 56 49 43 42 44 45 44 43 42 42 42 44 46 48 49 48 45 41 41 44 49 50 49 49 51 51 51 51 52 52 53 57 62 64 66 68 68 67 68 69 69 70 71 71 72 73 74 76 76 77 77 77 75 75 73 71 69 69 69 70 71 72 72 72 71 70 68 66 64 63 64 66 68 70 72 73 75 77 79 81 82
58 55 56 57 57 57 55 49 43 39 40 42 44 44 44 43 44 44 44 44 47 50 48 44 43 46 52 56 56 56 57 59 59 58 58 59 61 64 68 71 74 75 76 77 77 76 76 76 75 74 73 72 72 73 73 74 74 72 70 68 66 65 65 68 69 69 69 70 70 68 67 65 63 61 61 62 65 67 70 72 74 75 77 79 81 83 85
61 55 55 57 58 57 57 54 47 41 38 39 42 43 43 43 43 42 39 38 40 45 46 45 44 46 52 57 60 61 61 63 64 64 64 65 66 67 69 72 75 77 78 79 79 78 76 75 72 70 69 68 68 69 69 67 65 63 63 63 64 65 66 67 67 66 66 66 66 65 64 61 60 60 62 64 66 69 71 73 76 78 80 82 84 86 88
67 62 60 60 60 59 58 55 51 45 41 39 41 44 45 43 41 38 35 34 35 37 40 41 42 44 48 53 59 63 64 64 66 68 68 68 68 68 68 68 69 71 73 73 73 72 70 69 67 65 64 63 62 62 61 61 61 62 63 64 65 65 65 65 64 63 62 62 60 59 59 60 60 62 64 65 68 71 73 75 78 81 83 85 87 88 89
72 72 71 68 64 61 57 53 50 48 46 42 40 42 42 41 37 35 36 37 37 37 38 39 39 41 43 46 50 55 59 62 64 67 69 70 69 66 64 63 64 66 67 68 68 67 66 63 61 60 59 58 58 58 59 60 60 61 60 60 60 60 60 59 58 57 57 57 57 57 59 62 64 66 68 70 72 74 76 78 81 83 85 86 88 89 90
73 75 77 75 72 68 64 57 52 51 51 49 47 45 42 38 35 36 39 39 37 35 34 33 33 34 38 41 43 45 48 51 54 57 60 62 60 57 54 53 52 52 53 54 54 56 56 55 55 56 57 56 56 55 56 55 53 52 52 52 53 54 54 54 54 54 55 56 58 60 62 65 67 69 71 73 75 77 79 81 83 84 86 88 89 91 94
73 73 75 74 73 71 67 62 59 56 54 53 52 50 45 39 37 40 41 40 38 36 32 31 31 31 32 35 39 42 44 44 45 46 46 45 45 45 46 45 43 43 44 44 45 48 49 49 48 49 48 47 47 46 46 45 45 45 45 46 47 49 52 53 55 55 57 59 61 64 66 68 70 72 73 75 77 79 81 82 84 86 87 89 91 94 97
73 72 71 69 68 65 61 59 59 58 55 54 54 53 47 40 40 44 44 41 40 37 34 36 38 36 32 31 36 43 47 48 46 45 43 41 40 41 43 44 43 42 41 41 41 42 41 39 38 38 38 39 40 41 41 41 42 44 45 47 50 53 56 57 58 60 61 63 64 66 68 69 71 72 74 76 79 81 82 84 86 87 89 92 95 97 97
74 73 72 69 66 60 56 57 60 60 58 56 56 55 48 41 40 47 48 44 41 39 38 41 44 41 35 32 33 39 46 50 49 47 44 42 41 41 40 40 40 39 38 37 37 37 36 36 37 38 39 40 41 41 42 44 46 49 51 53 55 58 60 60 61 63 65 66 68 69 71 72 74 76 78 80 82 84 85 87 89 91 94 97 98 97 95
75 74 72 72 69 63 58 58 60 62 62 61 60 58 53 46 44 50 52 47 43 43 43 45 46 45 41 37 35 36 41 45 46 47 46 45 44 44 43 42 42 41 40 39 38 37 38 40 41 42 42 44 44 45 48 51 53 55 57 58 61 63 64 65 66 68 71 73 74 76 77 79 81 82 83 84 85 87 89 91 94 97 98 97 95 94 94
74 73 72 71 71 69 65 62 62 63 65 66 65 62 57 50 47 53 56 52 48 46 46 47 48 48 46 45 43 42 42 43 44 46 48 50 50 50 49 47 46 45 44 44 43 42 42 43 45 46 47 48 50 52 54 57 59 60 62 63 65 67 68 70 71 73 75 77 79 79 80 82 84 85 87 88 89 91 94 96 97 97 95 93 93 94 94
72 72 71 70 70 69 68 68 68 68 70 70 70 67 63 56 53 54 58 57 54 52 51 52 52 51 49 49 49 48 47 47 47 46 47 49 49 49 49 48 47 47 48 49 49 49 49 50 51 52 53 54 55 58 61 63 64 64 66 67 68 69 71 73 74 76 77 80 81 82 84 85 87 89 91 92 93 95 96 96 94 92 92 92 94 95 97
70 69 69 69 69 70 69 70 71 72 73 73 72 68 64 62 62 62 62 63 61 57 56 56 56 55 53 52 51 51 50 51 51 50 49 50 50 50 49 49 49 50 52 53 54 55 56 57 57 58 59 59 60 63 66 67 68 69 70 71 72 73 76 77 79 81 82 84 86 87 88 89 90 91 92 94 95 96 94 92 92 92 93 93 94 97 100
65 65 64 65 67 69 70 71 72 72 72 73 72 65 58 58 63 67 68 69 67 63 61 60 60 59 57 56 55 55 54 54 54 54 54 55 56 57 57 58 57 57 57 58 58 60 62 63 63 64 65 65 66 68 70 71 72 74 74 75 76 78 79 80 82 83 84 85 86 87 88 90 91 92 94 95 94 93 91 90 91 93 94 95 97 100 103
61 62 63 63 65 67 69 71 72 73 72 71 70 64 57 56 61 66 71 74 72 68 65 64 64 63 62 61 60 60 59 59 59 59 59 61 62 62 63 64 65 65 64 64 64 65 66 66 67 69 70 71 72 73 74 75 76 77 77 78 79 80 81 82 83 84 85 87 89 90 91 92 93 93 92 91 90 89 89 91 93 96 98 100 102 103 103
61 62 64 65 66 67 69 69 70 71 70 69 66 61 57 58 62 66 71 76 76 72 69 68 68 67 67 66 65 64 64 64 63 63 63 64 65 65 65 65 66 66 67 67 68 69 69 70 70 72 73 74 75 76 77 77 78 79 80 80 82 83 84 85 86 87 89 91 91 92 91 91 89 89 88 89 90 92 95 97 100 102 103 103 103 103 103
63 64 65 66 66 67 68 68 68 68 66 65 63 59 58 60 64 67 71 77 79 76 74 72 72 71 71 70 69 68 68 68 67 67 67 67 67 67 67 68 68 69 69 69 70 71 71 72 73 74 75 76 78 79 80 80 81 82 84 85 86 87 87 87 88 89 90 90 89 88 88 87 88 90 92 95 97 99 101 103 104 105 104 104 103 104 105
67 67 67 67 67 67 67 67 66 65 63 61 60 59 59 61 64 66 70 77 81 80 78 76 75 74 75 74 73 72 72 71 71 70 70 70 70 70 69 70 71 72 72 73 74 74 75 75 76 77 78 79 80 81 81 82 83 84 85 86 86 87 87 88 89 90 89 89 88 88 90 92 94 96 98 100 101 103 104 105 105 104 104 105 106 106 106
69 69 69 69 69 69 68 66 65 64 61 59 58 58 59 61 63 65 69 75 81 83 82 79 78 77 77 78 77 76 76 75 74 73 73 72 73 72 72 71 72 72 73 74 75 75 76 77 78 79 80 80 81 81 81 82 83 84 85 87 87 88 89 89 89 88 88 89 90 92 95 97 98 99 101 102 104 104 104 104 104 104 105 106 106 106 105
71 70 70 70 70 69 68 67 65 63 59 57 56 58 59 60 61 64 67 72 79 84 85 83 81 80 80 80 80 80 79 78 77 77 76 75 75 75 74 74 73 73 74 74 75 75 76 77 78 78 78 79 80 81 81 82 83 85 86 87 87 87 87 87 88 89 90 92 94 96 98 100 101 102 102 102 103 103 103 103 104 105 106 106 106 106 103
71 71 71 71 70 70 69 67 64 60 56 54 55 57 58 59 61 63 65 69 74 81 85 85 84 83 82 82 82 83 83 83 82 81 80 79 79 79 79 78 78 77 77 77 78 78 78 79 80 79 77 76 76 77 78 79 81 82 83 84 85 86 88 89 91 93 95 96 98 100 101 102 102 102 101 101 102 103 104 105 106 106 106 107 106 104 100
71 70 70 69 69 67 65 61 57 53 52 52 54 56 58 59 61 63 64 67 70 75 80 85 86 86 85 84 85 85 86 86 86 85 84 84 83 83 83 83 83 83 83 83 83 83 83 83 84 84 83 83 83 83 84 84 84 86 87 89 90 92 93 94 96 97 98 99 100 101 101 101 102 102 101 102 104 105 106 107 107 106 107 107 105 101 96
65 63 61 60 59 57 54 52 51 50 50 51 53 56 59 60 62 63 65 66 68 70 74 79 84 87 87 87 87 87 88 88 89 89 88 87 87 87 87 88 88 88 87 87 87 88 88 88 88 88 88 89 89 89 90 90 91 92 93 94 95 96 96 97 97 98 99 99 100 100 101 101 102 103 104 105 105 106 107 107 107 107 107 106 103 97 93
56 54 53 53 53 51 50 50 51 51 52 53 54 57 60 62 64 65 66 66 67 69 71 74 78 82 86 88 89 89 89 89 89 90 90 90 90 90 90 91 91 91 90 90 91 91 92 93 93 94 94 94 94 94 94 93 93 94 94 95 96 96 97 97 97 98 99 99 100 100 102 103 105 106 107 107 107 107 108 108 108 108 108 104 99 95 92
55 54 54 54 54 53 53 54 54 54 55 55 57 59 61 64 66 68 67 67 68 69 71 72 73 76 79 83 86 88 89 89 89 89 90 91 91 91 90 90 90 89 88 88 88 89 90 90 90 91 91 91 92 92 92 92 92 93 94 96 96 97 97 98 98 98 99 100 101 102 104 106 107 108 108 108 108 109 109 109 110 109 106 101 97 93 90
59 58 57 58 58 57 56 57 59 59 58 58 59 61 63 65 68 69 69 69 69 70 71 73 73 74 75 76 79 82 85 86 87 89 90 90 89 88 86 84 82 80 80 80 81 82 83 84 85 86 88 89 90 91 91 92 93 94 95 96 97 97 98 98 99 100 102 103 104 106 107 108 108 109 109 110 111 111 111 111 110 107 103 98 94 91 87
62 63 63 63 63 62 61 61 62 63 63 62 62 63 64 66 69 70 71 71 72 72 73 74 74 74 75 76 76 77 79 82 84 87 89 90 88 86 84 83 81 80 80 80 81 81 82 83 85 87 89 90 92 93 93 94 95 95 96 97 98 99 100 102 103 105 106 107 108 108 108 109 110 111 112 113 113 113 112 111 108 104 99 95 91 88 84
Wind_Direction
259 255 249 248 248 247 246 244 241 239 237 235 235 236 236 236 237 236 235 234 234 233 235 236 235 235 236 236 237 240 243 245 245 244 245 246 248 250 251 251 251 252 252 251 252 252 253 254 256 259 262 263 264 265 267 269 272 274 275 277 278 279 281 282 283 285 287 288 290 291 292 294 295 297 299 300 302 304 305 306 307 308 310 310 311 312 313
259 257 251 248 249 248 246 245 244 243 241 237 235 235 236 237 237 236 235 236 235 234 234 236 236 235 235 235 235 236 239 243 245 244 244 245 246 248 252 253 252 251 251 251 252 252 253 254 255 256 259 262 264 265 267 269 271 273 275 276 277 278 279 281 283 284 286 288 289 291 292 293 295 296 298 300 302 303 304 305 306 308 308 309 310 311 312
257 258 255 251 249 248 246 245 246 247 245 240 238 237 236 237 238 237 235 235 236 235 235 236 237 236 236 236 235 235 237 240 244 245 245 244 244 245 247 249 250 250 250 250 252 253 254 256 257 257 258 260 262 264 265 267 269 272 273 275 275 276 278 280 282 284 285 287 288 289 291 293 295 296 298 299 301 302 303 304 305 305 306 307 309 310 312
257 257 255 253 251 249 245 243 246 251 250 245 241 240 238 236 236 237 236 235 235 236 236 235 236 237 238 237 237 236 236 239 242 244 245 245 244 245 245 247 250 252 252 252 252 252 254 255 256 256 257 259 261 262 264 266 268 270 272 273 274 276 277 279 281 283 284 286 287 289 291 293 294 296 298 299 300 301 302 302 302 303 305 306 308 310 311
257 256 254 252 252 250 244 243 248 251 251 247 242 240 239 237 235 236 236 235 234 235 236 235 234 236 237 238 238 237 236 238 241 243 244 245 245 245 247 248 250 252 253 253 254 254 255 255 256 256 257 259 261 263 264 266 267 269 270 272 273 275 276 278 281 282 284 286 287 289 291 293 294 296 297 298 299 300 300 301 302 303 305 307 308 309 310
256 255 253 251 251 249 246 246 248 247 247 247 243 241 240 238 236 236 236 236 234 235 236 236 235 235 237 238 238 239 237 237 239 241 242 244 245 246 248 250 251 253 254 255 256 257 258 258 259 259 260 261 262 263 265 266 267 268 270 271 272 273 275 278 280 282 284 286 287 289 291 292 294 295 296 297 298 299 300 301 302 304 305 307 308 309 309
257 256 254 252 250 250 250 250 248 245 245 246 245 243 242 240 239 238 237 236 236 236 236 236 236 235 236 236 237 239 239 237 237 239 241 242 245 247 249 251 252 254 256 257 257 258 259 259 261 262 262 262 263 264 266 267 267 268 269 270 272 273 274 277 279 282 284 286 287 289 290 292 293 294 295 296 297 299 300 301 303 304 305 307 308 308 308
256 255 255 254 252 251 251 250 248 245 245 246 247 246 245 243 242 241 239 238 238 238 237 237 238 237 236 236 235 236 240 240 240 240 241 242 245 246 247 250 252 252 254 256 256 257 257 258 260 261 262 262 263 265 266 267 267 268 269 271 273 274 275 278 280 282 284 286 288 289 290 292 293 294 295 296 297 299 300 301 303 304 305 306 307 307 308
253 252 252 252 250 248 248 249 248 247 246 248 249 248 247 247 246 244 242 240 239 238 238 237 238 238 237 237 236 236 239 243 244 243 241 241 243 245 245 247 249 250 251 254 256 256 257 258 259 260 261 262 264 265 266 267 267 268 270 272 273 274 277 280 282 283 285 287 288 290 291 292 293 294 295 296 297 298 300 301 302 303 305 306 306 307 308
250 249 249 249 248 246 246 247 247 247 248 249 249 247 247 247 245 243 241 240 239 239 239 238 238 239 239 238 238 237 238 241 244 245 243 241 241 243 245 245 247 249 250 252 255 256 257 257 259 260 261 262 264 265 266 267 268 270 272 274 274 275 279 281 282 284 287 288 289 290 292 293 293 294 295 296 297 298 299 301 302 303 305 306 306 308 308
249 249 249 250 249 249 247 246 246 246 246 246 246 244 243 244 244 242 241 241 241 240 240 239 239 240 239 238 238 238 237 238 240 242 244 244 243 243 245 246 247 247 248 250 253 255 256 257 258 260 261 262 264 265 266 268 269 271 273 274 274 276 279 280 282 286 288 288 289 291 292 293 294 295 296 296 297 298 299 300 301 302 304 305 306 308 308
249 249 249 249 248 246 245 244 245 244 243 243 244 243 243 245 247 246 243 242 242 240 239 239 239 239 239 238 237 237 237 237 237 239 242 244 245 245 246 248 248 247 247 249 251 253 255 257 258 259 260 262 263 265 266 268 270 271 273 274 275 276 278 280 283 286 288 288 290 291 293 294 295 295 296 296 297 298 298 299 300 302 304 305 306 307 308
248 248 248 247 245 244 242 242 243 243 242 243 244 244 245 247 248 247 246 244 243 242 240 239 240 240 239 238 237 237 237 237 237 238 240 243 245 246 247 249 251 251 250 250 250 251 253 254 256 258 259 261 262 264 266 267 269 271 273 274 275 277 279 281 283 285 286 288 290 291 292 294 295 296 296 297 298 298 298 299 301 303 304 305 305 307 308
246 246 245 244 242 241 240 240 242 242 242 241 242 242 244 245 245 245 246 245 244 243 241 240 240 240 240 239 239 238 238 237 237 238 240 242 244 246 247 250 252 253 253 252 252 252 252 253 255 257 258 259 261 263 265 266 268 271 273 274 276 278 280 282 283 284 285 287 289 290 292 293 294 295 297 298 299 299 299 300 302 304 304 304 305 307 308
243 243 243 242 240 239 239 239 240 241 240 238 239 239 240 241 242 243 244 244 244 244 244 243 240 240 240 240 240 240 240 239 239 239 241 242 244 245 248 250 251 251 252 253 254 254 254 254 255 255 256 258 259 261 263 265 267 269 271 273 276 278 280 280 281 283 285 287 288 289 291 292 293 295 296 297 296 296 298 299 301 303 303 304 305 306 307
239 240 240 239 238 238 239 238 239 239 237 235 235 236 237 238 240 241 243 245 246 246 247 246 243 240 239 240 241 242 242 242 240 239 240 243 245 246 247 248 249 250 251 254 255 256 255 255 255 256 257 259 259 260 262 264 267 268 270 273 275 277 278 279 281 282 284 285 287 288 289 290 292 293 293 292 291 292 295 297 299 301 302 303 304 305 306
238 238 238 236 235 236 236 237 237 237 236 233 233 235 235 235 238 241 242 244 247 248 248 246 244 241 239 240 242 244 243 242 241 240 240 242 244 246 247 248 249 251 253 255 257 257 257 257 257 258 259 260 260 260 261 263 265 268 270 273 274 275 276 278 280 282 283 284 285 286 287 288 289 289 289 288 288 290 293 296 298 299 300 302 303 304 305
237 239 238 237 236 235 235 236 237 237 236 233 234 236 236 234 237 242 243 243 244 246 247 246 244 242 239 238 240 242 243 242 241 243 245 246 246 247 249 251 252 253 254 255 257 258 259 259 259 259 260 260 260 260 261 263 265 268 269 271 272 273 275 277 279 280 281 282 283 284 285 286 286 287 287 286 287 290 292 295 296 297 299 301 302 303 303
232 234 236 237 236 235 236 239 240 240 238 237 239 240 237 235 237 241 243 243 242 241 245 249 247 243 240 239 238 241 243 243 241 240 244 249 253 255 256 256 256 257 258 257 257 258 258 259 259 259 260 261 261 262 263 264 266 267 268 269 270 271 273 275 277 279 280 281 282 283 284 285 286 287 287 287 288 290 292 294 295 296 298 300 301 301 301
226 227 230 236 237 234 234 239 242 242 240 239 240 238 234 232 237 241 242 243 242 240 241 248 248 242 239 239 240 241 243 243 241 238 237 243 252 258 261 263 262 261 260 260 259 257 257 257 257 258 259 261 262 263 263 264 265 266 267 267 269 271 273 275 276 278 279 280 282 283 284 285 286 287 287 288 289 290 291 292 294 295 297 298 299 299 299
223 222 223 231 235 233 230 234 239 240 238 237 238 237 233 230 234 239 239 240 241 238 235 243 250 244 237 236 238 240 242 243 240 235 233 236 242 248 255 263 266 264 261 260 258 256 254 255 255 256 258 259 260 261 263 263 264 266 266 267 269 270 272 274 275 277 279 280 281 283 284 285 286 286 287 288 288 289 290 292 293 294 296 297 298 298 299
220 220 219 225 232 233 231 232 236 237 237 237 237 238 235 230 230 235 237 238 239 238 235 241 247 240 231 230 232 233 234 235 231 227 228 233 237 239 243 252 258 259 257 256 254 253 252 253 254 256 257 258 259 260 261 262 263 265 266 267 268 270 272 274 275 277 279 279 280 281 283 284 285 286 286 287 288 289 290 292 294 295 296 297 298 298 299
218 220 220 222 227 229 229 230 233 235 237 238 238 237 236 233 231 232 233 233 236 236 233 234 237 230 221 219 216 212 214 216 215 218 227 236 238 233 230 234 242 246 248 249 250 251 252 253 255 256 256 257 258 259 260 261 263 264 266 267 269 270 272 274 275 276 277 278 279 281 282 283 284 285 286 287 289 290 292 293 295 295 295 296 297 297 298
216 218 220 221 224 227 229 230 233 235 236 238 239 240 240 240 237 233 231 230 232 233 228 226 226 219 210 204 198 194 196 204 208 212 220 228 230 226 221 222 228 235 241 245 249 251 252 253 255 256 256 257 258 259 260 261 263 264 266 267 269 271 272 273 274 274 275 276 278 280 281 282 284 285 287 289 291 292 293 293 293 292 292 293 294 295 296
216 219 221 222 224 228 231 231 233 234 233 235 238 240 242 244 243 241 236 232 230 230 229 227 224 213 203 198 196 195 196 202 209 214 218 220 219 215 215 218 222 229 237 246 252 256 257 257 258 259 259 259 259 260 261 261 263 265 266 268 270 271 272 271 271 272 274 277 278 280 281 283 285 286 288 290 290 290 290 289 288 288 289 291 292 293 295
217 220 222 223 226 230 229 225 226 230 231 233 235 237 240 243 245 245 242 236 230 229 229 230 226 215 205 201 202 202 202 204 209 214 218 222 221 218 217 221 226 234 242 250 255 258 260 261 261 261 261 261 261 262 262 263 264 266 268 270 270 269 267 268 270 272 275 277 279 280 282 284 286 286 286 286 286 285 285 285 285 286 288 289 291 292 294
213 216 219 221 224 226 223 220 221 226 231 233 235 236 238 241 244 246 246 241 234 232 233 236 233 221 212 208 208 208 208 209 211 214 217 222 225 227 228 231 235 240 246 250 255 258 260 261 261 261 261 261 262 262 263 264 266 267 268 268 267 264 265 269 272 274 276 277 279 281 283 283 284 283 282 281 281 282 282 283 284 285 287 288 290 292 293
212 213 216 217 219 222 222 220 219 222 228 234 235 235 236 239 243 245 242 237 232 230 231 233 232 224 218 217 217 216 215 214 215 219 222 226 229 233 237 240 242 245 248 251 254 257 258 259 259 260 260 260 262 263 263 263 262 263 263 264 263 264 267 272 274 275 277 278 280 281 281 280 279 278 278 279 279 279 281 282 283 285 287 288 290 292 293
213 215 215 213 214 218 221 221 219 220 225 230 232 233 236 240 243 239 228 219 217 217 217 219 222 220 219 221 223 223 223 222 222 225 228 231 234 238 242 245 246 247 249 251 252 254 255 256 257 258 259 260 261 261 260 258 258 260 262 264 266 268 271 273 275 276 277 278 278 278 276 276 275 275 275 276 277 278 280 282 284 285 287 288 290 292 294
214 217 218 216 214 215 218 220 221 221 223 227 230 233 236 240 238 226 212 205 205 209 212 215 218 218 218 220 222 225 226 227 229 230 232 235 238 242 245 246 247 248 248 249 250 251 253 253 253 254 254 255 254 254 256 258 262 264 265 267 268 270 272 274 276 276 277 276 275 273 271 271 272 273 274 276 278 279 281 283 284 286 288 289 291 293 296
214 218 221 221 220 219 221 224 226 225 225 230 234 234 237 238 229 213 203 201 203 207 213 220 225 226 224 222 221 221 222 224 227 230 233 235 237 240 242 243 243 245 246 248 249 250 250 251 251 251 251 252 253 255 258 261 264 265 266 268 270 272 274 276 277 277 275 274 273 271 271 272 273 274 276 277 279 281 282 283 285 287 289 290 292 294 296
215 218 222 224 226 227 227 229 230 231 232 234 234 233 235 235 222 207 200 201 203 206 213 222 229 234 235 230 225 221 219 219 221 224 228 230 231 233 233 233 233 236 241 244 246 247 248 251 253 252 252 253 255 258 260 263 265 266 267 269 271 272 274 274 274 273 271 271 271 271 272 273 274 276 277 279 280 282 283 284 286 288 290 292 293 295 298
216 218 221 223 227 230 229 227 226 229 232 233 231 230 230 229 217 206 203 205 207 210 215 221 225 229 232 230 225 222 218 216 216 219 222 224 225 228 230 230 230 231 235 238 240 241 242 246 249 250 251 255 258 261 264 266 267 268 268 268 269 270 269 268 267 266 266 267 269 270 271 273 275 277 278 280 281 283 284 286 288 290 291 293 295 297 299
217 219 221 222 224 227 228 226 224 225 228 231 230 227 227 226 218 209 206 208 211 214 216 218 221 225 226 223 219 218 216 213 213 215 217 221 224 227 229 231 231 231 232 233 234 235 237 241 246 249 252 256 259 262 264 265 265 266 266 266 266 266 264 263 264 265 266 268 270 272 274 276 277 279 281 282 283 285 287 289 290 291 293 295 297 298 300
219 220 222 223 224 224 225 226 226 224 226 229 230 228 229 230 223 212 207 209 212 215 217 217 219 222 223 219 214 213 213 212 211 212 215 219 223 225 227 230 233 234 236 237 238 239 240 244 249 252 254 256 258 259 260 261 262 262 263 263 263 262 262 263 265 268 270 272 273 275 277 279 280 281 283 284 286 287 289 290 292 293 294 296 297 298 299
222 223 223 225 225 225 225 226 227 225 225 228 230 230 230 229 222 213 210 210 211 213 216 218 219 220 221 219 217 215 214 214 214 214 216 219 223 226 229 232 235 238 240 242 243 244 245 247 250 253 255 257 258 258 259 260 262 263 263 263 262 262 263 265 267 269 271 273 274 277 279 280 282 283 284 286 287 289 290 291 292 294 295 296 297 298 299
224 224 225 225 226 226 226 227 228 229 229 230 233 234 233 229 224 218 214 211 211 212 215 218 220 221 221 222 223 222 221 221 221 221 221 223 225 228 230 233 237 240 242 244 245 247 248 249 250 251 253 255 255 256 257 259 261 263 263 263 263 264 266 268 270 272 273 275 276 278 280 281 282 284 285 286 288 289 291 292 293 295 295 296 296 297 300
225 226 227 227 227 227 228 229 231 233 234 235 238 239 237 233 231 228 220 214 212 213 214 217 220 221 221 222 225 226 226 226 226 227 229 230 232 233 235 237 239 241 242 243 245 246 248 249 250 250 252 253 253 254 255 257 259 261 262 263 264 266 268 270 272 273 274 275 277 278 280 281 282 283 285 287 288 290 292 293 294 294 294 295 296 298 301
226 227 228 229 229 229 230 231 233 235 237 239 241 241 238 234 233 230 223 215 213 214 214 215 218 220 221 222 224 225 226 227 228 229 231 233 235 238 239 240 241 242 243 243 244 245 246 248 249 250 251 252 252 253 255 256 258 260 261 262 264 265 267 269 270 272 274 276 277 278 280 281 282 284 286 288 289 290 291 292 293 293 294 295 297 300 302
226 226 227 228 229 230 231 233 235 237 239 241 242 242 239 235 233 229 221 215 213 214 214 215 216 218 220 221 222 223 225 227 229 230 231 233 236 239 241 241 241 241 242 243 245 246 246 247 248 249 251 251 252 253 254 256 258 259 261 262 264 265 267 269 271 272 274 276 277 279 281 282 284 285 286 287 288 289 290 291 292 293 295 297 299 301 303
226 226 227 228 230 231 233 234 236 238 240 242 243 244 241 238 234 229 221 215 214 214 215 215 216 218 219 221 222 223 225 227 229 230 232 233 235 237 240 242 242 242 242 243 244 245 247 248 249 249 250 251 253 254 255 257 258 260 262 263 265 266 268 270 272 274 276 278 279 281 282 283 284 284 285 285 287 289 290 292 293 295 297 299 300 302 304
227 228 229 230 231 233 234 236 238 240 241 243 245 246 243 238 234 229 222 216 214 215 215 216 217 219 220 222 223 225 226 228 230 231 233 234 235 236 238 240 242 242 243 243 244 246 247 249 250 251 252 254 255 256 258 259 261 262 264 265 267 268 270 272 274 277 279 280 280 281 280 280 281 282 284 285 287 289 291 293 295 297 299 300 301 303 304
228 230 231 233 234 235 236 238 240 242 244 246 247 246 242 237 234 229 223 218 216 216 217 218 219 220 222 224 226 227 228 230 231 233 234 235 237 237 238 239 240 242 243 244 245 247 249 250 252 253 254 255 257 258 260 261 263 264 265 267 269 271 273 275 277 277 278 278 278 278 279 280 281 283 285 286 288 290 292 295 296 298 300 301 303 304 305
229 231 232 234 236 237 239 241 242 245 247 248 246 242 239 236 233 229 225 221 218 217 218 220 221 222 224 226 227 229 230 232 233 235 235 237 238 239 240 241 242 243 244 245 246 248 250 251 253 254 256 257 259 261 262 264 265 267 268 270 272 273 275 275 275 275 275 276 277 279 280 282 283 285 287 289 291 293 294 296 297 298 300 302 303 304 305
230 232 233 235 237 239 241 243 246 248 248 245 241 238 237 235 232 229 227 223 221 220 220 222 223 225 226 227 229 230 232 234 235 237 238 238 239 240 242 244 245 247 248 249 250 252 254 255 256 258 260 262 263 265 266 268 269 270 271 272 272 272 273 273 273 274 275 277 279 280 282 283 285 287 289 291 292 294 295 296 297 299 301 302 304 305 306
232 233 235 237 239 242 244 246 248 247 244 239 236 236 236 234 231 229 228 226 224 223 223 224 226 227 228 229 230 231 233 234 236 237 239 239 240 241 243 245 247 249 251 252 253 255 256 258 259 260 262 263 264 264 265 266 267 267 268 268 269 270 271 272 273 275 277 279 280 282 284 285 287 288 290 291 292 294 295 296 298 300 301 303 304 305 305
235 237 239 240 242 243 244 244 243 241 238 235 234 235 235 234 233 231 230 229 228 226 226 226 228 229 230 231 232 233 234 235 236 238 239 240 241 242 244 246 247 249 251 253 254 255 256 257 258 259 260 260 261 261 262 263 264 265 266 268 269 271 273 274 276 277 279 280 281 283 284 285 286 288 289 291 292 293 295 296 298 300 302 303 304 304 304
239 239 240 240 240 239 238 237 237 237 236 235 235 235 235 235 235 233 232 231 231 230 230 230 230 231 232 233 234 235 236 237 239 240 242 243 244 245 246 247 248 250 251 252 254 255 256 257 258 259 260 261 262 263 264 266 267 268 269 271 272 274 275 276 277 278 279 279 280 282 283 284 286 288 289 291 292 293 295 297 299 301 302 303 303 302 302
236 236 237 237 237 235 232 231 233 235 234 233 233 234 235 236 236 235 234 233 233 234 234 234 233 233 233 234 235 236 237 239 240 242 243 245 246 247 248 249 251 252 253 254 255 257 258 259 260 261 262 264 265 266 267 268 269 270 271 272 273 274 275 275 276 276 277 279 280 282 283 285 286 288 290 291 292 293 295 297 299 300 301 301 301 300 300
230 232 233 236 237 236 231 229 230 231 231 230 231 233 234 236 237 237 236 235 235 236 237 237 237 236 235 235 237 238 239 240 242 244 245 246 248 249 251 252 253 254 255 256 257 258 258 260 261 262 263 264 265 266 267 268 269 270 270 271 272 272 273 274 274 276 277 279 281 282 284 285 287 288 289 290 292 293 295 297 298 299 300 299 299 298 299
228 230 231 235 238 238 234 230 229 229 229 229 230 232 234 236 237 238 238 237 237 238 239 239 240 240 239 239 239 241 242 242 244 245 246 248 249 250 251 252 252 253 254 256 257 258 259 260 261 262 263 264 265 265 266 266 267 267 268 269 270 271 272 274 275 277 278 279 281 282 284 285 286 287 288 290 292 293 295 296 298 298 298 297 297 297 297
230 231 233 235 238 239 238 234 231 230 229 230 230 232 233 235 237 239 239 239 239 240 240 241 242 242 243 242 242 243 243 244 245 246 247 248 249 249 250 250 250 251 252 254 256 257 259 260 261 261 262 262 263 264 264 265 265 266 267 268 270 272 273 274 276 277 278 279 280 282 283 284 285 287 289 290 292 294 295 296 297 296 296 295 295 296 296
Height
10780 10782 10784 10784 10784 10788 10792 10795 10798 10800 10800 10804 10808 10814 10824 10827 10827 10839 10853 10853 10853 10862 10867 10866 10870 10874 10875 10878 10882 10883 10882 10883 10888 10892 10893 10898 10902 10900 10902 10907 10909 10911 10914 10917 10917 10918 10919 10919 10920 10920 10918 10918 10920 10920 10921 10922 10922 10922 10922 10921 10920 10920 10920 10919 10919 10919 10918 10916 10915 10914 10912 10910 10909 10908 10908 10908 10908 10906 10904 10902 10901 10900 10898 10894 10890 10887 10883
10771 10772 10776 10779 10777 10779 10783 10788 10792 10793 10793 10797 10802 10809 10816 10817 10821 10833 10841 10840 10844 10854 10857 10856 10861 10865 10866 10869 10873 10875 10875 10874 10878 10884 10888 10891 10895 10895 10896 10899 10902 10905 10908 10910 10911 10912 10913 10913 10914 10915 10914 10912 10913 10914 10915 10916 10917 10916 10914 10914 10914 10913 10913 10913 10913 10913 10912 10911 10910 10908 10906 10905 10904 10903 10903 10902 10902 10902 10899 10896 10895 10894 10893 10891 10888 10883 10878
10762 10766 10768 10769 10769 10770 10775 10781 10785 10786 10787 10793 10798 10804 10808 10809 10813 10821 10826 10830 10837 10845 10848 10848 10850 10855 10858 10861 10863 10866 10869 10869 10870 10876 10882 10885 10887 10889 10889 10891 10894 10898 10901 10904 10905 10906 10907 10907 10909 10910 10909 10907 10907 10909 10909 10910 10911 10910 10907 10906 10907 10907 10907 10907 10907 10907 10906 10906 10904 10903 10901 10900 10898 10897 10896 10896 10896 10895 10894 10892 10890 10888 10888 10886 10884 10880 10875
10755 10760 10759 10760 10761 10760 10765 10775 10783 10783 10784 10788 10792 10794 10794 10798 10804 10807 10811 10821 10831 10834 10834 10835 10839 10844 10849 10852 10855 10858 10862 10863 10863 10867 10873 10877 10880 10881 10881 10883 10888 10891 10894 10897 10899 10900 10901 10901 10902 10903 10903 10902 10902 10903 10903 10904 10905 10904 10901 10899 10900 10901 10901 10901 10901 10901 10901 10900 10899 10897 10896 10894 10892 10891 10890 10889 10889 10888 10887 10886 10884 10883 10882 10880 10879 10877 10873
10747 10748 10750 10753 10748 10746 10760 10777 10781 10777 10774 10775 10779 10780 10782 10787 10793 10795 10799 10812 10821 10818 10815 10821 10830 10836 10838 10842 10847 10850 10853 10855 10855 10859 10865 10870 10871 10872 10872 10876 10881 10883 10886 10889 10892 10894 10895 10895 10896 10897 10897 10897 10897 10897 10897 10898 10899 10898 10895 10893 10894 10896 10896 10895 10895 10895 10895 10895 10893 10891 10890 10889 10887 10886 10884 10883 10882 10882 10881 10879 10878 10876 10874 10873 10872 10871 10869
10735 10737 10740 10739 10734 10743 10765 10773 10766 10761 10761 10763 10767 10771 10774 10779 10783 10787 10791 10799 10803 10802 10804 10814 10823 10827 10829 10832 10838 10841 10844 10847 10848 10850 10856 10861 10862 10864 10867 10869 10872 10874 10877 10882 10886 10887 10889 10890 10889 10891 10893 10891 10890 10891 10891 10891 10892 10892 10888 10886 10888 10890 10891 10890 10890 10890 10889 10888 10887 10886 10885 10883 10881 10880 10878 10876 10875 10875 10874 10872 10870 10868 10867 10865 10863 10862 10861
10725 10727 10725 10724 10732 10751 10761 10754 10748 10750 10753 10755 10760 10765 10770 10775 10777 10779 10781 10785 10789 10792 10799 10806 10811 10815 10818 10822 10829 10832 10832 10836 10840 10841 10848 10854 10855 10858 10862 10862 10863 10867 10869 10873 10878 10880 10882 10883 10883 10886 10887 10885 10883 10884 10884 10883 10885 10884 10881 10880 10882 10884 10885 10885 10885 10885 10884 10882 10880 10880 10879 10877 10875 10873 10871 10869 10868 10867 10867 10865 10863 10861 10860 10858 10856 10853 10851
10713 10716 10713 10719 10735 10747 10744 10737 10737 10742 10746 10750 10755 10760 10766 10769 10769 10768 10771 10777 10782 10786 10793 10798 10800 10802 10806 10811 10820 10825 10823 10826 10833 10837 10844 10848 10847 10851 10854 10852 10853 10859 10861 10863 10867 10872 10874 10876 10877 10879 10879 10878 10877 10877 10876 10875 10876 10876 10874 10874 10876 10878 10879 10879 10880 10880 10878 10876 10875 10873 10872 10871 10869 10867 10865 10863 10861 10860 10859 10859 10857 10855 10852 10851 10849 10847 10844
10702 10706 10707 10714 10725 10730 10730 10729 10730 10735 10743 10747 10748 10755 10762 10762 10759 10759 10762 10767 10773 10777 10783 10788 10787 10789 10795 10803 10814 10822 10823 10823 10827 10833 10837 10837 10837 10839 10842 10841 10842 10848 10855 10856 10857 10862 10867 10868 10869 10871 10871 10872 10872 10871 10869 10867 10867 10868 10868 10868 10869 10871 10872 10873 10874 10873 10872 10871 10869 10867 10866 10865 10863 10860 10858 10856 10854 10853 10852 10851 10850 10847 10844 10842 10840 10839 10836
10691 10697 10698 10704 10714 10721 10724 10724 10725 10733 10739 10738 10740 10749 10753 10749 10745 10746 10751 10758 10765 10768 10772 10776 10777 10780 10788 10798 10809 10821 10825 10821 10818 10820 10822 10825 10828 10827 10828 10832 10833 10837 10847 10851 10849 10852 10858 10859 10861 10863 10863 10864 10866 10864 10862 10859 10859 10861 10863 10863 10863 10864 10865 10866 10866 10867 10867 10865 10862 10860 10858 10857 10855 10852 10850 10849 10847 10846 10845 10844 10842 10840 10837 10833 10830 10829 10827
10683 10688 10691 10699 10709 10716 10717 10716 10721 10728 10729 10728 10734 10740 10739 10736 10736 10740 10746 10752 10754 10756 10760 10766 10769 10771 10777 10791 10804 10811 10812 10810 10808 10806 10807 10812 10818 10819 10820 10823 10821 10827 10841 10846 10841 10843 10848 10851 10854 10855 10854 10857 10859 10857 10855 10852 10851 10854 10856 10857 10857 10857 10857 10859 10859 10860 10860 10859 10856 10854 10851 10848 10846 10843 10841 10840 10838 10838 10837 10836 10835 10833 10830 10826 10822 10820 10818
10676 10681 10686 10694 10702 10705 10707 10710 10714 10717 10719 10723 10728 10729 10729 10732 10733 10735 10741 10743 10742 10746 10753 10756 10758 10760 10768 10782 10790 10790 10792 10796 10797 10796 10798 10803 10808 10812 10815 10810 10807 10821 10837 10837 10832 10836 10841 10842 10845 10845 10845 10849 10852 10851 10849 10846 10845 10846 10849 10849 10849 10849 10851 10852 10853 10853 10852 10851 10850 10848 10844 10840 10837 10834 10831 10829 10828 10829 10829 10827 10826 10825 10822 10819 10816 10813 10810
10667 10673 10680 10686 10691 10695 10699 10702 10704 10709 10714 10717 10718 10721 10725 10728 10727 10727 10731 10733 10734 10740 10744 10747 10749 10754 10763 10771 10775 10775 10779 10783 10786 10791 10797 10798 10799 10804 10805 10797 10800 10820 10830 10824 10823 10829 10832 10833 10837 10837 10838 10841 10844 10844 10843 10840 10838 10840 10841 10841 10841 10843 10844 10846 10846 10846 10845 10844 10844 10842 10838 10834 10830 10826 10822 10819 10818 10818 10819 10819 10817 10816 10814 10812 10810 10807 10804
10659 10665 10670 10675 10680 10685 10690 10693 10696 10702 10707 10708 10711 10716 10719 10719 10719 10719 10721 10724 10729 10732 10736 10740 10744 10749 10756 10761 10763 10765 10767 10771 10779 10791 10796 10793 10791 10794 10795 10794 10804 10818 10816 10809 10812 10819 10822 10826 10829 10829 10830 10834 10837 10838 10836 10833 10833 10834 10833 10832 10834 10836 10838 10839 10838 10838 10838 10838 10838 10836 10832 10828 10823 10819 10814 10811 10808 10807 10809 10810 10809 10808 10806 10804 10803 10801 10798
10650 10654 10659 10666 10673 10678 10682 10686 10690 10694 10699 10704 10708 10709 10708 10710 10713 10714 10716 10719 10724 10728 10731 10734 10737 10743 10747 10749 10751 10756 10760 10768 10781 10790 10788 10785 10787 10790 10790 10794 10804 10807 10800 10796 10803 10810 10815 10819 10821 10821 10824 10828 10830 10830 10829 10829 10829 10827 10825 10826 10828 10830 10831 10830 10830 10830 10831 10831 10830 10828 10825 10822 10818 10813 10809 10805 10801 10799 10800 10801 10800 10799 10798 10796 10795 10793 10791
10640 10644 10651 10659 10666 10670 10674 10679 10684 10688 10693 10699 10700 10698 10701 10707 10709 10709 10711 10715 10719 10723 10726 10728 10732 10736 10739 10740 10745 10751 10757 10766 10776 10779 10777 10780 10785 10786 10785 10787 10793 10796 10792 10791 10796 10802 10807 10811 10813 10816 10818 10819 10821 10822 10823 10823 10822 10819 10818 10820 10822 10822 10822 10821 10821 10822 10823 10824 10823 10821 10819 10816 10812 10808 10804 10800 10796 10794 10794 10794 10793 10791 10789 10787 10787 10785 10783
10630 10636 10643 10651 10657 10662 10667 10673 10678 10681 10685 10691 10691 10691 10697 10703 10702 10701 10706 10710 10713 10717 10720 10723 10725 10728 10732 10736 10741 10746 10750 10756 10763 10767 10770 10776 10778 10777 10778 10782 10786 10790 10790 10788 10790 10794 10799 10803 10806 10809 10810 10810 10812 10813 10814 10815 10815 10814 10814 10815 10815 10814 10813 10813 10814 10815 10816 10815 10815 10814 10813 10810 10807 10803 10798 10794 10790 10788 10788 10787 10786 10784 10781 10780 10779 10777 10775
10624 10631 10638 10645 10651 10656 10662 10667 10670 10673 10679 10685 10686 10687 10690 10693 10695 10698 10701 10703 10707 10711 10714 10716 10719 10722 10727 10731 10735 10738 10741 10747 10756 10764 10769 10773 10773 10773 10777 10781 10782 10783 10783 10783 10785 10788 10791 10795 10798 10799 10799 10800 10801 10803 10805 10808 10809 10810 10809 10808 10806 10805 10806 10807 10808 10808 10808 10807 10806 10806 10805 10803 10800 10797 10793 10788 10784 10783 10782 10781 10779 10777 10774 10773 10771 10769 10767
10620 10628 10634 10640 10646 10653 10658 10661 10663 10668 10676 10681 10680 10679 10681 10686 10692 10696 10694 10695 10701 10706 10709 10711 10713 10716 10721 10725 10729 10732 10734 10741 10752 10761 10766 10771 10773 10775 10777 10778 10777 10778 10778 10777 10778 10780 10782 10785 10787 10788 10788 10789 10792 10795 10798 10800 10802 10803 10802 10800 10798 10798 10799 10801 10801 10801 10800 10799 10798 10797 10796 10794 10792 10790 10787 10783 10780 10778 10776 10774 10772 10770 10768 10766 10764 10761 10758
10615 10625 10633 10636 10640 10647 10651 10653 10656 10662 10668 10671 10670 10671 10675 10682 10688 10689 10687 10690 10697 10701 10703 10707 10708 10710 10714 10720 10724 10727 10730 10737 10746 10753 10759 10767 10773 10773 10773 10773 10772 10770 10767 10766 10768 10770 10772 10774 10774 10776 10778 10781 10785 10788 10790 10792 10793 10792 10792 10791 10791 10792 10793 10794 10794 10793 10792 10791 10789 10788 10786 10785 10784 10782 10779 10777 10774 10771 10769 10767 10766 10763 10760 10759 10756 10753 10750
10611 10621 10629 10629 10631 10637 10642 10645 10649 10654 10659 10661 10662 10665 10671 10678 10682 10681 10681 10686 10691 10694 10698 10702 10703 10704 10709 10714 10718 10723 10727 10733 10740 10745 10752 10761 10765 10765 10767 10769 10767 10760 10755 10754 10755 10756 10758 10760 10762 10766 10770 10773 10777 10779 10780 10782 10783 10782 10782 10782 10783 10785 10786 10787 10786 10786 10785 10784 10782 10779 10777 10776 10776 10774 10772 10769 10767 10764 10762 10761 10759 10756 10753 10751 10749 10745 10741
10606 10615 10622 10623 10626 10631 10636 10639 10643 10647 10651 10653 10656 10659 10665 10671 10675 10675 10676 10680 10684 10687 10692 10696 10698 10701 10704 10707 10713 10719 10724 10728 10733 10739 10746 10752 10756 10757 10760 10765 10764 10754 10746 10743 10740 10740 10745 10749 10752 10757 10761 10764 10767 10769 10770 10772 10772 10772 10773 10774 10775 10777 10778 10778 10778 10779 10778 10775 10772 10770 10769 10768 10768 10766 10764 10761 10759 10756 10754 10753 10750 10747 10745 10743 10740 10736 10733
10602 10609 10615 10617 10620 10624 10628 10631 10635 10639 10643 10646 10650 10654 10658 10663 10667 10669 10671 10674 10677 10681 10686 10690 10693 10695 10697 10700 10706 10711 10717 10722 10728 10735 10741 10744 10746 10747 10751 10757 10755 10743 10733 10730 10730 10733 10738 10742 10745 10749 10753 10755 10757 10759 10760 10762 10763 10764 10765 10766 10768 10770 10770 10769 10769 10770 10769 10766 10763 10762 10761 10759 10759 10758 10755 10754 10751 10748 10746 10744 10741 10738 10736 10734 10731 10728 10724
10597 10602 10606 10609 10613 10617 10620 10624 10628 10632 10637 10641 10645 10649 10652 10656 10660 10663 10665 10668 10671 10675 10680 10684 10687 10689 10691 10695 10699 10703 10708 10715 10722 10728 10733 10736 10740 10742 10743 10745 10742 10731 10723 10724 10727 10730 10733 10736 10739 10742 10744 10746 10748 10749 10751 10753 10754 10755 10757 10759 10761 10761 10761 10760 10760 10760 10759 10757 10755 10754 10753 10751 10750 10749 10747 10745 10743 10740 10737 10736 10733 10730 10728 10726 10724 10721 10717
10591 10594 10598 10602 10607 10610 10614 10620 10624 10628 10632 10636 10639 10643 10647 10650 10653 10656 10660 10663 10666 10670 10675 10679 10682 10684 10686 10690 10693 10695 10698 10704 10710 10715 10718 10723 10729 10732 10730 10728 10726 10721 10718 10719 10722 10724 10727 10729 10732 10735 10737 10739 10740 10740 10742 10744 10745 10747 10750 10752 10753 10753 10751 10751 10751 10751 10750 10748 10746 10745 10744 10743 10742 10740 10738 10737 10735 10732 10730 10728 10726 10723 10721 10719 10716 10713 10710
10585 10589 10593 10597 10601 10604 10610 10615 10620 10623 10627 10630 10633 10637 10640 10644 10647 10650 10653 10657 10660 10664 10669 10673 10676 10679 10681 10683 10685 10687 10688 10691 10696 10700 10704 10707 10712 10715 10716 10715 10714 10712 10712 10713 10715 10717 10720 10722 10725 10727 10729 10730 10731 10732 10734 10735 10737 10740 10743 10744 10745 10744 10742 10741 10743 10744 10742 10739 10736 10735 10735 10734 10733 10732 10731 10729 10727 10725 10723 10721 10719 10717 10714 10711 10708 10705 10702
10578 10582 10586 10590 10594 10598 10605 10610 10614 10618 10622 10625 10627 10631 10635 10638 10642 10645 10648 10651 10654 10658 10663 10666 10670 10673 10675 10676 10677 10679 10680 10682 10685 10689 10693 10696 10699 10702 10704 10705 10706 10706 10707 10708 10710 10711 10714 10716 10718 10720 10721 10722 10724 10725 10726 10728 10730 10733 10735 10735 10735 10735 10733 10733 10734 10735 10733 10729 10728 10728 10727 10726 10724 10724 10723 10722 10720 10718 10716 10714 10711 10709 10706 10703 10699 10696 10693
10571 10575 10578 10582 10587 10592 10599 10605 10610 10614 10617 10620 10623 10626 10630 10633 10637 10641 10643 10646 10648 10652 10656 10659 10662 10665 10669 10670 10671 10672 10675 10677 10679 10681 10684 10687 10690 10693 10696 10698 10700 10701 10702 10704 10705 10708 10710 10711 10712 10713 10714 10715 10717 10718 10719 10721 10723 10725 10726 10725 10725 10726 10726 10725 10726 10726 10724 10721 10721 10720 10719 10718 10718 10717 10716 10715 10713 10710 10709 10706 10702 10699 10697 10694 10691 10687 10684
10567 10569 10570 10574 10580 10586 10593 10599 10604 10609 10613 10616 10619 10622 10625 10629 10632 10636 10639 10641 10643 10646 10649 10652 10655 10658 10662 10664 10665 10667 10670 10673 10675 10677 10678 10681 10683 10686 10689 10691 10693 10694 10696 10698 10701 10703 10704 10705 10706 10707 10707 10709 10710 10711 10713 10715 10717 10717 10717 10717 10717 10717 10717 10716 10716 10716 10715 10714 10714 10713 10711 10710 10710 10709 10708 10707 10705 10703 10701 10698 10694 10690 10688 10686 10682 10678 10675
10561 10562 10564 10569 10576 10582 10588 10594 10599 10604 10608 10611 10614 10617 10621 10624 10627 10631 10634 10636 10638 10641 10644 10647 10649 10652 10655 10658 10660 10662 10665 10668 10670 10672 10673 10675 10678 10680 10682 10684 10686 10687 10690 10692 10694 10696 10697 10698 10699 10701 10701 10702 10704 10705 10706 10707 10707 10708 10709 10709 10708 10708 10708 10707 10707 10707 10706 10706 10707 10706 10704 10703 10701 10700 10699 10698 10697 10695 10694 10691 10686 10682 10680 10678 10674 10670 10666
10556 10557 10560 10566 10573 10578 10583 10589 10594 10598 10602 10605 10608 10612 10616 10620 10623 10626 10628 10631 10633 10636 10639 10642 10645 10647 10650 10653 10655 10657 10659 10661 10664 10666 10668 10670 10673 10675 10677 10678 10679 10681 10683 10686 10688 10690 10691 10692 10693 10694 10695 10696 10697 10697 10698 10698 10699 10700 10701 10700 10699 10699 10699 10699 10699 10698 10698 10698 10698 10698 10697 10696 10694 10693 10691 10690 10688 10687 10686 10683 10679 10675 10672 10670 10666 10662 10658
10552 10554 10558 10563 10569 10574 10580 10586 10590 10593 10597 10600 10603 10607 10612 10616 10618 10621 10624 10626 10628 10631 10634 10637 10640 10642 10644 10647 10649 10651 10653 10655 10657 10660 10663 10665 10668 10669 10671 10672 10674 10676 10678 10681 10683 10684 10686 10687 10687 10687 10688 10689 10689 10689 10690 10691 10691 10692 10693 10693 10693 10693 10693 10693 10692 10691 10691 10691 10690 10689 10689 10688 10686 10684 10683 10681 10680 10678 10676 10674 10671 10668 10665 10662 10657 10653 10649
10547 10551 10555 10560 10565 10571 10576 10582 10586 10589 10592 10595 10598 10603 10608 10611 10614 10617 10620 10622 10624 10626 10628 10631 10633 10636 10639 10641 10643 10645 10647 10648 10650 10654 10657 10660 10662 10663 10664 10666 10669 10671 10673 10675 10677 10679 10680 10681 10681 10681 10682 10682 10682 10683 10684 10684 10685 10685 10686 10687 10687 10687 10686 10686 10686 10684 10684 10684 10683 10681 10680 10679 10678 10676 10675 10673 10671 10669 10666 10664 10662 10659 10656 10652 10648 10643 10640
10542 10547 10551 10556 10562 10566 10571 10576 10580 10585 10588 10590 10594 10599 10603 10607 10610 10612 10614 10616 10619 10621 10623 10626 10628 10631 10635 10636 10637 10639 10640 10642 10644 10648 10651 10654 10656 10658 10659 10661 10663 10665 10667 10669 10671 10672 10673 10674 10674 10674 10675 10675 10675 10676 10677 10678 10678 10679 10680 10681 10680 10679 10679 10679 10678 10677 10676 10675 10674 10673 10671 10670 10669 10668 10666 10664 10662 10659 10656 10654 10651 10648 10646 10643 10638 10633 10631
10538 10544 10548 10553 10558 10563 10567 10571 10575 10579 10583 10585 10589 10593 10598 10602 10604 10606 10608 10610 10613 10616 10618 10621 10623 10626 10630 10632 10633 10634 10635 10636 10638 10641 10644 10647 10649 10651 10653 10655 10657 10659 10661 10663 10664 10665 10665 10666 10666 10667 10668 10668 10668 10670 10671 10671 10672 10672 10673 10674 10673 10672 10671 10672 10671 10670 10668 10666 10664 10664 10662 10660 10659 10658 10656 10654 10652 10649 10647 10644 10641 10638 10636 10633 10629 10624 10621
10535 10540 10545 10549 10554 10558 10562 10566 10570 10573 10577 10580 10583 10587 10592 10596 10598 10601 10603 10605 10607 10609 10613 10615 10617 10620 10623 10625 10627 10629 10630 10632 10633 10635 10637 10639 10641 10644 10646 10649 10651 10653 10655 10656 10657 10658 10658 10658 10658 10660 10661 10661 10662 10664 10665 10664 10664 10665 10665 10666 10665 10664 10664 10664 10664 10663 10660 10657 10656 10655 10654 10652 10650 10648 10646 10644 10642 10640 10638 10635 10632 10629 10627 10624 10619 10615 10612
10531 10536 10541 10545 10549 10553 10557 10561 10564 10567 10570 10573 10576 10580 10585 10589 10593 10595 10598 10599 10600 10603 10606 10609 10611 10614 10616 10619 10621 10623 10625 10627 10629 10630 10633 10635 10636 10638 10640 10642 10644 10646 10647 10649 10650 10651 10651 10651 10652 10653 10654 10655 10656 10657 10656 10655 10657 10657 10657 10656 10656 10656 10656 10655 10655 10653 10651 10648 10647 10646 10646 10643 10640 10638 10637 10635 10633 10631 10629 10627 10623 10620 10617 10615 10610 10606 10602
10528 10533 10537 10541 10544 10548 10551 10554 10557 10560 10563 10566 10569 10573 10578 10582 10585 10588 10591 10593 10594 10596 10599 10602 10605 10608 10610 10612 10614 10617 10619 10621 10623 10625 10627 10629 10631 10633 10634 10636 10638 10639 10640 10641 10643 10644 10644 10644 10645 10646 10647 10648 10649 10648 10647 10647 10649 10648 10647 10647 10648 10647 10646 10646 10645 10643 10641 10639 10638 10638 10637 10634 10632 10630 10629 10627 10625 10622 10620 10618 10614 10610 10607 10605 10602 10597 10592
10524 10529 10533 10536 10539 10542 10545 10548 10550 10553 10556 10559 10562 10566 10570 10573 10575 10578 10582 10585 10586 10589 10591 10595 10598 10601 10604 10606 10608 10610 10612 10614 10616 10618 10620 10622 10624 10626 10627 10629 10631 10632 10633 10634 10636 10636 10636 10637 10638 10638 10639 10640 10640 10639 10639 10639 10639 10638 10638 10639 10639 10638 10637 10637 10636 10634 10633 10631 10629 10628 10627 10625 10623 10622 10620 10618 10615 10613 10611 10608 10604 10599 10596 10595 10593 10588 10583
10521 10524 10528 10530 10533 10536 10538 10541 10543 10546 10549 10552 10555 10559 10563 10566 10567 10569 10572 10576 10578 10581 10584 10587 10590 10593 10596 10598 10600 10602 10604 10606 10608 10610 10612 10614 10616 10617 10619 10621 10623 10624 10625 10626 10627 10627 10627 10628 10629 10630 10630 10630 10630 10630 10630 10630 10629 10629 10630 10630 10630 10629 10629 10628 10627 10626 10624 10622 10620 10619 10618 10616 10614 10613 10611 10609 10606 10604 10601 10598 10594 10589 10586 10584 10582 10578 10574
10515 10518 10521 10524 10527 10529 10532 10534 10537 10540 10542 10545 10548 10551 10555 10557 10559 10560 10564 10567 10570 10573 10576 10579 10582 10584 10587 10589 10592 10594 10597 10599 10601 10602 10604 10606 10607 10609 10610 10612 10614 10615 10616 10617 10618 10618 10619 10620 10621 10620 10620 10621 10621 10621 10621 10621 10620 10620 10621 10621 10621 10620 10620 10619 10618 10617 10615 10612 10611 10611 10609 10606 10605 10604 10601 10598 10596 10594 10591 10587 10583 10579 10575 10573 10570 10567 10563
10509 10512 10515 10518 10521 10523 10526 10529 10531 10534 10536 10539 10542 10544 10546 10548 10550 10552 10555 10559 10562 10565 10567 10570 10573 10576 10578 10581 10584 10586 10588 10590 10592 10594 10596 10598 10599 10600 10602 10604 10604 10605 10607 10608 10609 10609 10610 10611 10611 10612 10612 10612 10612 10612 10613 10613 10613 10612 10612 10612 10611 10611 10611 10610 10609 10607 10605 10603 10602 10601 10599 10596 10595 10593 10589 10586 10585 10584 10581 10576 10571 10568 10564 10561 10558 10555 10551
10503 10506 10509 10511 10514 10517 10520 10523 10525 10528 10530 10533 10535 10536 10538 10539 10542 10544 10548 10551 10554 10557 10559 10562 10565 10567 10570 10573 10576 10578 10580 10581 10583 10585 10587 10589 10590 10592 10594 10595 10596 10597 10598 10599 10600 10601 10602 10602 10602 10603 10603 10603 10604 10604 10604 10605 10605 10604 10603 10602 10602 10602 10602 10600 10599 10597 10595 10594 10592 10589 10586 10584 10583 10581 10578 10576 10574 10573 10570 10566 10561 10557 10553 10549 10546 10542 10539
10497 10500 10503 10505 10508 10511 10514 10516 10519 10521 10524 10526 10527 10528 10530 10531 10534 10537 10540 10544 10547 10549 10552 10554 10557 10560 10562 10565 10567 10569 10571 10573 10575 10576 10578 10580 10581 10582 10584 10586 10586 10588 10589 10590 10592 10593 10593 10593 10593 10593 10593 10594 10594 10595 10595 10595 10595 10594 10593 10593 10593 10592 10591 10589 10587 10586 10585 10583 10580 10577 10574 10572 10570 10569 10568 10566 10563 10561 10559 10555 10551 10547 10543 10540 10535 10531 10526
10492 10495 10497 10500 10502 10505 10507 10510 10512 10515 10517 10518 10519 10521 10523 10525 10527 10530 10533 10536 10539 10542 10544 10546 10549 10552 10555 10557 10559 10561 10564 10565 10566 10567 10569 10571 10572 10574 10575 10577 10578 10579 10580 10581 10583 10583 10583 10583 10583 10584 10584 10584 10585 10585 10585 10585 10584 10584 10583 10583 10582 10581 10579 10577 10575 10574 10573 10571 10569 10566 10563 10561 10559 10558 10558 10556 10552 10548 10546 10544 10540 10536 10533 10530 10525 10520 10516
10487 10489 10492 10495 10497 10499 10501 10504 10506 10507 10509 10511 10512 10514 10516 10518 10521 10523 10526 10529 10531 10534 10536 10539 10541 10544 10547 10549 10551 10553 10555 10556 10557 10559 10560 10562 10564 10566 10567 10568 10569 10570 10571 10572 10573 10573 10573 10573 10573 10573 10574 10574 10574 10574 10574 10574 10573 10573 10572 10570 10569 10568 10567 10565 10564 10563 10562 10560 10558 10555 10553 10551 10549 10547 10547 10545 10541 10537 10534 10532 10529 10526 10522 10518 10514 10510 10506
10482 10484 10487 10489 10491 10493 10495 10497 10499 10500 10502 10504 10506 10508 10509 10511 10513 10516 10519 10521 10524 10527 10529 10531 10533 10535 10538 10540 10542 10544 10546 10547 10549 10551 10553 10555 10557 10559 10559 10559 10559 10560 10560 10561 10562 10563 10563 10563 10563 10563 10563 10563 10562 10562 10563 10563 10563 10562 10560 10558 10557 10557 10556 10555 10554 10553 10552 10550 10547 10544 10542 10540 10538 10536 10536 10535 10531 10526 10523 10520 10518 10515 10511 10506 10502 10500 10496
10476 10479 10481 10483 10485 10487 10489 10491 10492 10494 10496 10498 10500 10501 10503 10504 10506 10508 10511 10514 10517 10519 10521 10523 10525 10527 10529 10531 10532 10534 10537 10540 10542 10544 10546 10548 10549 10549 10549 10549 10548 10549 10550 10552 10553 10553 10553 10553 10553 10553 10553 10552 10552 10552 10552 10553 10553 10551 10549 10547 10546 10546 10545 10545 10544 10542 10540 10538 10536 10534 10531 10529 10526 10525 10524 10523 10520 10516 10512 10509 10507 10505 10500 10496 10492 10489 10486
10471 10473 10475 10476 10478 10480 10483 10485 10487 10488 10490 10492 10493 10495 10496 10496 10498 10500 10503 10507 10510 10512 10513 10514 10516 10518 10521 10523 10524 10526 10529 10532 10534 10535 10536 10538 10538 10538 10538 10539 10539 10540 10541 10543 10543 10543 10542 10542 10542 10542 10542 10541 10541 10541 10541 10542 10541 10540 10538 10536 10534 10533 10533 10533 10532 10529 10527 10526 10524 10522 10520 10517 10515 10513 10511 10510 10508 10506 10502 10499 10496 10493 10489 10486 10482 10479 10476
10466 10468 10469 10470 10472 10473 10475 10478 10480 10482 10484 10485 10486 10488 10489 10489 10490 10492 10496 10499 10502 10504 10505 10506 10507 10510 10513 10515 10516 10517 10520 10523 10524 10525 10525 10527 10527 10528 10528 10529 10530 10531 10532 10532 10532 10531 10532 10532 10532 10532 10531 10531 10530 10530 10530 10531 10530 10528 10526 10524 10522 10521 10520 10520 10518 10517 10516 10514 10512 10510 10508 10505 10503 10501 10499 10497 10495 10494 10492 10489 10485 10482 10478 10475 10472 10468 10465
10460 10462 10463 10465 10466 10467 10469 10471 10473 10474 10476 10478 10479 10481 10482 10483 10484 10485 10488 10492 10494 10496 10496 10497 10499 10501 10503 10506 10508 10509 10510 10512 10514 10515 10515 10515 10516 10517 10519 10520 10521 10521 10521 10520 10520 10521 10522 10523 10523 10522 10521 10520 10519 10518 10519 10519 10518 10516 10514 10512 10510 10509 10508 10507 10505 10504 10503 10502 10500 10498 10497 10495 10492 10489 10487 10485 10483 10482 10480 10477 10474 10471 10468 10464 10460 10457 10454
10453 10455 10456 10458 10459 10460 10462 10464 10465 10466 10468 10470 10471 10473 10474 10476 10476 10478 10481 10484 10486 10487 10488 10489 10490 10492 10494 10496 10498 10500 10500 10501 10502 10503 10503 10504 10506 10507 10508 10509 10509 10509 10509 10509 10509 10510 10511 10512 10512 10511 10509 10507 10506 10506 10506 10505 10504 10503 10502 10501 10499 10497 10495 10494 10492 10491 10490 10488 10487 10486 10485 10483 10481 10478 10475 10473 10471 10469 10467 10464 10462 10459 10456 10454 10450 10445 10442